Showing default

LEMUR 2 BALTO, 63395

Orbit data source: Space-Track

LEMUR 2 BALTO, 63395 is a payload satellite owned by Spire (US) in SSO that was launched on Sat, 15 Mar 2025 UTC via an FALCON 9 launch vehicle from the Air Force Western Test Range (AFWTR). Payload-class satellites include a variety of spacecraft equipped with specific instruments for various scientific and technological missions. These include communications satellites like Starlink; space stations such as the ISS; scientific satellites like the Hubble; Earth observation satellites from companies like Planet Labs, Umbra, and HawkEye 360; GPS; miniature CubeSats for education and research; and military/defense satellites.

Loading next visibility...
Identifier
63395, 2025-052BH
Orbit
SSO
Country
Flag of USUS
Related business
Manufacturer
SPIREG/WINGB
Mission
Operational Commercial Com/MetRO
Bus & Motor
CUBESAT 6U, Unknown motor
Mass
10 kg wet, 10 kg dry
Launch date (UTC)
2025-03-15 (1 year ago)
Launch vehicle
FALCON 9
Launch site
Air Force Western Test Range (AFWTR)
Object type
Payload
Rocket body
Debris
Shape & HBR
Box, 0.2 m
Radar Cross Section
0.080 m², Small (<0.1 m²)

Expand to show TLE details & history
Last TLE update: 21 hours ago

TLE from 21 hours ago
0 LEMUR 2 BALTO
1 63395U 25052BH  26120.68486813  .00005273  00000-0  43322-3 0  9999
2 63395  97.6932  14.8770 0001731 177.4884 182.6349 14.99590892 61648
Epoch: 2026-04-30T16:26Z
TLE epoch observation values (Epoch: 2026-04-30T16:26:12.606Z)
Latitude
0.00006°
Longitude
-90.30347°
Altitude
572.415 km
Speed
7.574 km/s
True Right ascension
00h 59m 30s
True Declination
0° 00' 00"
Sunlit
Object was in daylight at epoch
Visualization orbit readout
Latitude
Unknown
Longitude
Unknown
Altitude
Unknown
Speed
Unknown
Apparent Right ascension
Unknown
Apparent Declination
Unknown
Sunlit
N/A
Visualization observer readout
Local Sidereal Time
20:34:28
Azimuth
Unknown
Elevation
Unknown
Doppler factor
Unknown
Orbital elements
Apogee altitude
566.367 km
Perigee altitude
563.963 km
Semi-major axis
6,943.302 km
Eccentricity
0.00017
Inclination
97.6932°
RAAN
14.877°
Arg. of periapsis
177.4884°
True anomaly
182.63399°
Mean anomaly
182.6349°
Eccentric anomaly
182.63444°
Mean motion
3.75141 °/min
Orbital period
95.96 mins
BSTAR
0.00043322
Loading maneuver chart data...
Computing Atmospheric mass density...
Loading historical data...
Loading historical data...
Loading historical data...
Loading historical data...
Loading historical data...
Loading historical data...
Loading historical data...

Documentation

Showing up to 5 results
|